Location: Oshawa
(43.9000°N, 78.8670°W)
Time: 11:17:04
(UTC-04:00)

ITAMSAT 1 - Visible Passes

Search period start: 22 September 2017 00:00
Search period end: 02 October 2017 00:00
Orbit: 783 x 797 km, 98.8° (Epoch: 21 September)

Date Brightness Start Highest point End Pass type
(mag) Time Alt. Az. Time Alt. Az. Time Alt. Az.
22 Sep 9.3 04:13:32 10° NE 04:18:04 29° E 04:21:22 16° SSE visible
22 Sep 8.2 05:52:48 10° N 05:57:34 37° WNW 06:02:05 11° SW visible
23 Sep 10.2 03:45:13 10° NE 03:48:24 16° E 03:51:33 10° SE visible
23 Sep 7.6 05:23:09 10° N 05:28:20 67° WNW 05:32:16 18° SSW visible
24 Sep 7.9 04:53:47 10° NNE 04:58:59 68° ESE 05:02:27 21° S visible
24 Sep 9.1 06:34:29 10° NNW 06:37:54 18° WNW 06:41:19 10° W visible
25 Sep 9.0 04:24:41 10° NNE 04:29:31 37° E 04:32:39 19° SSE visible
25 Sep 8.5 06:04:20 10° N 06:08:51 30° WNW 06:13:21 10° SW visible
26 Sep 9.9 03:56:04 10° NE 03:59:54 20° E 04:02:49 13° SE visible
26 Sep 7.8 05:34:35 10° N 05:39:40 54° WNW 05:43:33 17° SW visible
27 Sep 10.5 03:29:06 10° ENE 03:30:09 11° E 03:31:12 10° E visible
27 Sep 7.6 05:05:07 10° NNE 05:10:22 85° ESE 05:13:44 23° SSW visible
28 Sep 8.6 04:35:54 10° NNE 04:40:55 46° E 04:43:55 23° SSE visible
28 Sep 8.8 06:15:56 10° N 06:20:07 25° WNW 06:24:18 10° WSW visible
29 Sep 9.6 04:07:04 10° NE 04:11:22 25° E 04:14:05 17° SE visible
29 Sep 8.0 05:46:04 10° N 05:50:59 43° WNW 05:54:49 16° SW visible
30 Sep 10.3 03:39:03 10° ENE 03:41:41 14° E 03:44:16 10° ESE visible
30 Sep 7.5 05:16:29 10° NNE 05:21:43 78° WNW 05:25:00 24° SSW visible
01 Oct 8.1 04:47:10 10° NNE 04:52:20 58° ESE 04:55:10 26° S visible
01 Oct 9.0 06:27:36 10° NNW 06:31:22 21° WNW 06:35:07 10° WSW visible
